Location: Spangle
(47.4302°N, 117.3779°W)
Time: 14:08:00
(UTC+00:00)

Envisat - Pass Details

Date: 20 April 2026
Orbit: 761 x 762 km, 98.4° (Epoch: 15 May)

Event Time Altitude Azimuth Distance (km) Brightness Sun altitude
Rises 09:49:04 0° 21° (NNE) 3,235 7.5 -25.2°
Reaches altitude 10° 09:51:35 10° 30° (NNE) 2,304 6.5 -24.9°
Maximum altitude 09:56:13 35° 96° (E) 1,222 4.2 -24.5°
Enters shadow 09:58:16 25° 140° (SE) 1,499 4.3 -24.3°
